This is the latest recevied weather packets stored in our database for station/object DL1GHN-6. If no packets are shown the sender has not sent any weather packets the latest 10 day(s).
| Time | Temp. | Humidity | Pressure | Rain* | Wind** | Luminosity | Snow |
|---|---|---|---|---|---|---|---|
| 1777587480 | 7.78° C | 54% | 1024.4 hPa | 0 mm | - | 0 W/m² | - |
| 1777587182 | 7.78° C | 53% | 1024.4 hPa | 0 mm | - | 0 W/m² | - |
| 1777586880 | 8.33° C | 54% | 1024.3 hPa | 0 mm | - | 0 W/m² | - |
| 1777586581 | 8.33° C | 53% | 1024.2 hPa | 0 mm | - | 0 W/m² | - |
| 1777586281 | 8.33° C | 52% | 1024.2 hPa | 0 mm | - | 0 W/m² | - |
| 1777585981 | 7.78° C | 53% | 1024.1 hPa | 0 mm | - | 0 W/m² | - |
| 1777585680 | 8.33° C | 53% | 1024 hPa | 0 mm | - | 0 W/m² | - |
| 1777585380 | 8.33° C | 55% | 1024.1 hPa | 0 mm | - | 0 W/m² | - |
| 1777585081 | 8.33° C | 51% | 1024 hPa | 0 mm | - | 0 W/m² | - |
| 1777584780 | 8.33° C | 51% | 1024 hPa | 0 mm | - | 0 W/m² | - |
| 1777584481 | 8.89° C | 52% | 1023.9 hPa | 0 mm | - | 0 W/m² | - |
| 1777584181 | 8.89° C | 50% | 1023.9 hPa | 0 mm | - | 0 W/m² | - |
| 1777583881 | 9.44° C | 51% | 1023.9 hPa | 0 mm | - | 0 W/m² | - |
| 1777583581 | 9.44° C | 50% | 1023.9 hPa | 0 mm | - | 0 W/m² | - |
| 1777583281 | 9.44° C | 47% | 1023.9 hPa | 0 mm | - | 0 W/m² | - |
| 1777582982 | 10° C | 48% | 1023.8 hPa | 0 mm | - | 0 W/m² | - |
| 1777582681 | 10° C | 48% | 1023.8 hPa | 0 mm | - | 0 W/m² | - |
| 1777582382 | 10.56° C | 47% | 1023.8 hPa | 0 mm | - | 0 W/m² | - |
| 1777582082 | 10.56° C | 45% | 1023.7 hPa | 0 mm | - | 0 W/m² | - |
| 1777581782 | 11.11° C | 44% | 1023.7 hPa | 0 mm | - | 0 W/m² | - |
| 1777581482 | 11.67° C | 43% | 1023.7 hPa | 0 mm | - | 0 W/m² | - |
| 1777581181 | 12.22° C | 42% | 1023.6 hPa | 0 mm | - | 0 W/m² | - |
| 1777580880 | 12.78° C | 41% | 1023.5 hPa | 0 mm | - | 0 W/m² | - |
| 1777580581 | 13.33° C | 39% | 1023.5 hPa | 0 mm | - | 0 W/m² | - |
| 1777580280 | 13.89° C | 35% | 1023.5 hPa | 0 mm | - | 0 W/m² | - |
* Rain latest hour (hover to see other rain measurements)
** Current wind speed in m/s (hover to see current wind gust speed)